Погода в Медвежьегорске

Погода в Медвежьегорске : погода сейчас, прогноз погоды и архив. Всё, что Вы хотите узнать о погоде в Медвежьегорске!

Хотите узнать прогноз погоды в Медвежьегорске? Тогда Вам сюда: Погода в Медвежьегорске

Поиск расширенной информации на нашем сайте:

Другие новости

Новости СМИ2

Главная страница сайта

Новости сайта

03.07.2017

Напоминаем, что на нашем специализированном сайте Метеоцентр.Азия вы можете получить высокодетализированные автоматические прогнозы погоды по пунктам России, СНГ и мира в авиационном формате (включающие направление и скорость ветра, видимость, явления погоды, количество и форму облачности, нижнюю и верхнюю границу облачности).


Погода в Медвежьегорске - сегодня

Время (UTC), дата Ветер
(°,м/с) 
Видим.   Явления Облачность Т
(°С)
Тd
(°С)
f(%) Тe
(°С)
Pmin
(гПа)
dP
(гПа)
Po
(мм)
O2
(г/м3)
Тmin Tmax R s Состояние
почвы
09 19.09.18 210 (ЮЗ) 20000 м    9/8 1000 м средняя 
[Sc|Ac trans]
+13 +9.7 80 +15  1006.7  -0.4  748  286           
12 19.09.18 180 (Ю) 20000 м    10/10 600 м кучево-дожд. 
[Cb cap]
+12.4 +10.3 87 +16  1006.1  -0.6  747  286           
21 19.09.18 тихо ()   0200 м  слаб. ливневой дождь{туман}  ?/?  
+12.5 +12.3 99 +17  1002.1  -1  744  284           
00 20.09.18 тихо ()   0050 м  туман{ливн. осадки}  ?/?  
+12.3 +12.1 99 +17  1002  -0.1  744  285           
09 20.09.18 310 (СЗ) 20000 м    9/9 300 м кучево-дожд. 
[Cb cap]
+16.6 +14.2 86 +25  1004.7  0.8  746  281           
15 20.09.18 200 (Ю) 20000 м    10/0 верхняя 
[Cs]
+17.2 +13.5 79 +25  1004  -0.6  746  280           
21 20.09.18 260 (З) 10 км    10/10 600 м 
[Sc]
+16.1 +13.4 84 +23  1002.8  -0.4  745  281           
09 21.09.18 280 (З) 20000 м    8/0 верхняя 
[Cs]
+15.8 +7.3 57 +17  1008.4  1.3  749  284           
15 21.09.18 290 (З) 20000 м    10/4 1500 м средняя, верхняя 
[Sc|Ac trans|Ci fib]
+14.6 +5.9 56 +16  1008.9  0.2  749  286           
21 21.09.18 250 (З) 10 км    10/0 верхняя 
[Cs]
+14.3 +12.9 91 +21  1007.8  -1.1  749  284           
00 22.09.18 190 (Ю) 10 км    ясно 
+14 +13.3 96 +21  1005.9  -1.9  747  284           
09 22.09.18 160 (Ю) 20000 м    5/0 средняя, верхняя 
[Ac trans|Cc]
+18.1 +14.2 78 +27  998.3  -3.4  742  277           
12 22.09.18 200 (Ю) 20000 м    9/9 300 м кучево-дожд. 
[Cb cap]
+20.4 +13.9 66 +28  996.7  -1.5  741  275           
15 22.09.18 320 (СЗ) 20000 м    10/10 1000 м кучево-дожд. 
[Cb cap]
+16.4 +9.8 65 +19  998.4  1.6  742  280           
21 22.09.18 210 (ЮЗ) 10 км    9/9 600 м 
[Sc]
+12 +9 82 +13  999.6  0.1  743  285           
00 23.09.18 210 (ЮЗ) 10 км    8/8 600 м 
[Sc]
+11.1 +9 87 +12  999  -0.6  742  286           
09 23.09.18 310 (СЗ) 20000 м    10/5 600 м верхняя 
[Sc|Ci fib]
+13.3 +7 66 +14  996.3  -1  740  283           
21 23.09.18 200 (Ю) 20000 м    9/4 600 м средняя, верхняя 
[Sc|Ac trans|Cc]
+7.3 +6.3 93 +8  996.2  0.5  740  289           
00 24.09.18 230 (ЮЗ) 20000 м    5/0 средняя, верхняя 
[Ac trans|Cc]
+7.1 +6.2 94 +8  997.1  0.9  741  290           
09 24.09.18 300 (СЗ) 20000 м    10/8 300 м средняя, верхняя 
[Sc|Ac trans|Cs]
+10.4 +5.6 72 +12  999.1  0.6  742  287           
15 24.09.18 340 (С) 20000 м    8/8 1000 м 
[Sc]
+10.3 +2.9 60 +11  1000.9  0.9  743  288           
18 24.09.18 360 (С) 20000 м    ясно 
+3.8 +2.8 93 +3  1002.3  1.2  744  295    +11.9       
21 24.09.18 360 (С) 20000 м    ясно 
+1.2 +1.2 100 +2  1003.4  745  299           
00 25.09.18 350 (С) 20000 м    ясно 
+0.3 +0.3 100 1003.7  0.2  745  300           
09 25.09.18 010 (С) 20000 м    8/8 600 м 
[Sc]
+7.2 +2.6 73 +6  1006.3  1.2  747  293           
Время (UTC), дата Ветер
(°,м/с) 
Видим.   Явления Облачность Т
(°С)
Тd
(°С)
f(%) Тe
(°С)
Pmin
(гПа)
dP
(гПа)
Po
(мм)
O2
(г/м3)
Тmin Tmax R s Состояние
почвы

Для получения пояснительной информации подведите курсор к названию столбца.

ПОГОДА в Медвежьегорске - архив

Всё, что Вы хотите узнать о погоде в Медвежьегорске - удобно и подробно!

Выберите нужную дату (начиная с 1 января 2015* года) и нажмите кнопку "Найти".
Будут отображены архивные сводки погоды по пункту Медвежьегорск, начиная с указанной даты.


Отображать данные в формате CSV (для использования в таблицах Excel)


Внимание! Наш архив погоды предназначен исключительно для личного некоммерческого использования в познавательных целях. Если Вам необходимы официальные справки о состоянии погоды (для производственных, юридических, коммерческих и т.п. целей), обращайтесь в органы Росгидромета.

*Примечание: данная дата относится к архиву по метеостанциям СССР (Россия, СНГ, Балтия).
Архив по метеостанциям Зарубежной Европы и Азии (кроме Китая) хранится 10 дней, по другим регионам земного шара (Китай, Африка, Америка, Австралия, Океания) - 1 день.

Медвежьегорск - район местоположения метеостанции


Название, широта, долгота, высота метеостанции:
Медвежьегорск 62.9°ш. 34.4°д. 81 м над ур. моря [Российская Федерация]

Дополнительная информация

В oтличие oт бoльшинства пoгoдных сайтoв мы публикуем пoдрoбную метеoинфoрмацию в детальнoм прoфессиoнальнoм фoрмате.

Характеристики температуры и влажнoсти вoздуха измеряются на высoте 2 м в тени вдали oт зданий и деревьев.
Скoрoсть ветра измеряется на высoте 10 м (на урoвне рoста челoвека скoрoсть ветра ниже в 1.5-2 раза). Если метеoстанция нахoдится в гoрoде или в лесу, тo скoрoсть ветра занижена на 2-4 м/с пo сравнению с oткрытым местoм. Скoрoсть ветра над акватoриями крупных рек и oзёр, а также на вершинах хoлмoв на 2-5 м/с выше, чем в oбычных услoвиях.
Атмoсфернoе давление в разных тoчках местнoсти мoжет значительнo oтличаться oт давления на метеoстанции, в зависимoсти oт услoвий рельефа (при пoдъёме на 10 м давление пoнижается примернo на 1 мм рт.ст.).